English version (google)  Retour à l'accueil Ecrire à l'auteur du site Runraid : Michel Jourdan


 Visitez La Boutique 



Les prochaines courses


Les derniers résultats

cliquez pour visualiser la page complète relatant la chronologie des éruptions du Piton de la Fournaise
éruptions Piton de la Fournaise


Ile de La Réunion

 Diagonale des Fous 

Ecrire au créateur du site : Michel Jourdan
Contact


2013-11-23 - JFK 50 Miles

Pour consulter le palmarès d'un coureur, un clic sur son nom !

Vous avez des remarques, corrections, ... sur ces résultats , un clic sur --> pour me transmettre toute information concernant les classements


JFK 50 Miles - 2013 : classement des 858 finishers
Place Nom Temps Cat. Club Sexe Clt/cat.
Place Nom Temps Cat. Club Sexe Clt/cat.
1 Miller Zachary 5:38:40 M23 USA M 0
2 Flaherty Matthew 5:44:24 M23 USA M 0
3 Wardian Michael 5:55:24 M35 USA M 0
4 Ridgway Iain 5:57:13 M23 GBR M 0
5 Aschbrenner Ryan 6:13:12 M35 USA M 0
6 Bialick Michael 6:14:32 M23 USA M 0
7 Janosko Kenneth 6:16:45 MU23 USA M 0
8 Oskvig Daven 6:19:13 M35 USA M 0
9 Lawler Jon 6:21:06 M45 USA M 0
10 Harrison Emily 6:34:52 W23 USA F 1ere F 0
11 Kuper William 6:35:14 M23 USA M 0
12 Sallade Chris 6:35:57 M40 USA M 0
13 Bhark Bryan 6:36:57 M23 USA M 0
14 Paavola Ryan 6:41:50 M23 USA M 0
15 Torrence Ian 6:44:41 M40 USA M 0
16 Schulten Chris 6:45:19 M40 USA M 0
17 Jones Ryan 6:47:07 M23 USA M 0
18 Martin Christopher 6:52:20 M35 USA M 0
19 Whitlock Jordan 6:55:57 M23 USA M 0
20 Dean Jeffrey 7:04:20 M23 USA M 0
21 Feil Justin 7:04:50 M35 USA M 0
22 Lammers Jeffrey 7:09:17 M35 USA M 0
23 Keefe Sean 7:10:31 M23 USA M 0
24 Brown Nicholas 7:12:25 M23 USA M 0
25 Charles Seth 7:13:36 MU23 USA M 0
26 Norton Sage 7:13:50 W23 USA F 2 F 0
27 Rousseau Pierre 7:17:14 M45 CAN M 0
28 Henry Kara 7:17:24 W23 USA F 3 F 0
29 Shegoski Lara 7:20:32 WU23 USA F 4 F 0
30 Arthur Joshua 7:20:32 M23 USA M 0
31 Chaichana Kaisorn 7:22:24 M23 USA M 0
32 Niles Michael 7:22:54 M40 USA M 0
33 Dawson Joshua 7:23:37 M23 USA M 0
34 Anderson John 7:24:04 M50 USA M 0
35 Shelton Smith Kevin 7:26:23 M50 USA M 0
36 Ornelas Victor 7:26:34 M23 USA M 0
37 Cooper Will 7:28:29 M45 USA M 0
38 Mentzer Steven 7:28:32 M45 USA M 0
39 Simpson Andrew 7:29:10 M40 USA M 0
40 Olson Jan Erick 7:29:19 M45 USA M 0
41 Ailes Istnick Shanna 7:29:49 W23 USA F 5 F 0
42 Peck Henry 7:33:07 M55 USA M 0
43 Ressler Lyle 7:33:17 MU23 USA M 0
44 Jones Jason 7:33:24 M35 USA M 0
45 Crawford Joseph 7:36:09 M23 USA M 0
46 Munari Dana 7:36:20 M45 USA M 0
47 Godesky Alyssa 7:38:07 W23 USA F 6 F 0
48 Dempsey Christopher 7:38:19 M35 USA M 0
49 Tubb Jesse 7:39:47 M35 USA M 0
50 Fennon Myles 7:39:56 M23 USA M 0
51 Parrish Jesse 7:40:51 MU23 USA M 0
52 Hidaka Yuichiro 7:41:15 M23 USA M 0
53 Waldon Steven 7:41:56 M23 USA M 0
54 White Edward 7:42:09 M45 USA M 0
55 Whiteside James 7:44:26 M40 USA M 0
56 Tamagna Darr Lucas 7:45:03 M23 USA M 0
57 Gannett Robert 7:45:25 M23 USA M 0
58 Spencer Jeffrey 7:46:15 M35 USA M 0
59 Waite Benjamin 7:46:15 M23 USA M 0
60 Halnon Emily 7:46:20 W23 USA F 7 F 0
61 Hoelscher Josef 7:46:42 M23 USA M 0
62 Guillaume Fabrice 7:47:24 M35 USA M 0
63 Schnurr William 7:48:01 M50 CAN M 0
64 Turgeon Richard 7:48:55 M45 CAN M 0
65 Waldron Thomas 7:48:55 M23 USA M 0
66 Sutton Erin 7:49:25 W23 USA F 8 F 0
67 Zuchetto Matthew 7:50:53 M35 USA M 0
68 Baine Trevor 7:51:20 M23 USA M 0
69 Baum Todd 7:51:49 M55 USA M 0
70 Simpson Lindsay 7:51:54 W35 CAN F 9 F 0
71 Bell Patrick 7:53:52 M40 USA M 0
72 Holder David 7:54:22 M35 USA M 0
73 Schumacher Martin 7:54:51 M40 USA M 0
74 Bowles Charles 7:55:59 M23 USA M 0
75 Cooper Ryan 7:56:14 M35 USA M 0
76 McCraw Scott 7:56:49 M40 USA M 0
77 Deshaies Eric 7:57:51 M40 CAN M 0
78 Fitzgerald Dennis 7:58:19 M23 USA M 0
79 Lindboom Broberg Kurt 7:59:18 M23 USA M 0
80 Tsang Phyllis 8:00:16 W23 USA F 10 F 0
81 Taylor Dink 8:02:04 M45 USA M 0
82 Donofrio Louis 8:04:38 M23 USA M 0
83 Phipps David 8:05:43 M45 USA M 0
84 Bennett Jeanne 8:05:47 W35 USA F 11 F 0
85 Fitz John 8:06:21 M35 USA M 0
86 Grab Rick 8:06:26 M35 USA M 0
87 Dymond Laurie 8:06:32 W45 USA F 12 F 0
88 Miller Tim 8:06:36 M45 USA M 0
89 Luzier Kathleen 8:07:00 W40 USA F 13 F 0
90 Caldwell Dave 8:08:25 M35 USA M 0
91 Schnabel Nick 8:08:34 M35 USA M 0
92 Baker Joel 8:08:36 M35 USA M 0
93 Spelina Charles 8:08:42 M23 USA M 0
94 Genenbacher Cale 8:09:37 M23 USA M 0
95 Price Erik 8:10:18 M23 USA M 0
96 Maliszewski Steven 8:11:03 M40 USA M 0
97 Stanley Ann 8:11:16 W35 USA F 14 F 0
98 Cawood Robert 8:12:51 M40 USA M 0
99 Seifarth Bryan 8:14:16 M23 USA M 0
100 Chenard Denis 8:14:37 M50 CAN M 0
101 Flacks Daryl 8:14:37 M40 CAN M 0
102 Apfelbaum Ben 8:15:36 M35 USA M 0
103 Somers Thomas 8:15:54 M40 USA M 0
104 Caswell Bruce 8:16:37 M45 USA M 0
105 Weeda David 8:16:38 M35 USA M 0
106 Williamson Duane 8:18:24 M45 USA M 0
107 Perry Jill 8:18:39 W40 USA F 15 F 0
108 Jacobs Paul 8:18:44 M23 USA M 0
109 Itano Stephen 8:18:52 M50 USA M 0
110 Miller Wendy 8:19:15 W23 USA F 16 F 0
111 de Souza Daniel 8:21:05 MU23 USA M 0
112 Blais Normand 8:21:14 M45 CAN M 0
113 Youngren Kathy 8:21:16 W35 USA F 17 F 0
114 Overton Dana 8:21:18 W35 USA F 18 F 0
115 Daoust Jean Charles 8:22:25 M35 CAN M 0
116 Seabreeze John 8:22:41 M40 USA M 0
117 Snyders Greg 8:22:53 M23 USA M 0
118 Bermudez Conrado 8:23:15 M40 PHI M 0
119 Straub Laura 8:24:56 W23 USA F 19 F 0
120 Wieczorek Matthew 8:24:59 M23 USA M 0
121 Jacobs Paul 8:25:29 M50 USA M 0
122 Young Michael 8:25:51 M55 USA M 0
123 Lewis Blaine 8:26:10 M50 USA M 0
124 Jacobs Daniel 8:27:20 MU23 USA M 0
125 Valocsik Erin 8:28:11 W23 USA F 20 F 0
126 Suplisson Fabrice 8:28:25 M50 USA M 0
127 Allott Jim 8:28:35 M50 USA M 0
128 Orville Joseph 8:28:43 M23 USA M 0
129 Clark Murray 8:29:18 M45 USA M 0
130 Smyth Donna 8:29:29 W50 USA F 21 F 0
131 Vandenhoven Leon 8:31:51 M50 CAN M 0
132 Hastings Aaron 8:32:27 M40 USA M 0
133 Smith Taylor 8:32:31 M23 USA M 0
134 Netherton Rob 8:33:06 M45 USA M 0
135 Dorsky Lauren 8:34:05 WU23 USA F 22 F 0
136 Cook James 8:35:46 M45 USA M 0
137 Villere Justin 8:36:15 M23 USA M 0
138 Jaskot Matthew 8:36:42 M23 USA M 0
139 Jarrell Terrance 8:37:06 M50 CAN M 0
140 McGill William 8:37:06 M40 USA M 0
141 Welch Jonathan 8:37:51 M23 USA M 0
142 McCabe John 8:38:03 M40 USA M 0
143 Russell Angela 8:38:19 W35 USA F 23 F 0
144 Cillo Antonio 8:38:38 M23 USA M 0
145 Dewall Nathan 8:38:57 M23 USA M 0
146 Byus Ed 8:39:34 M23 USA M 0
147 Sayers Kevin 8:39:35 M50 USA M 0
148 Saillard Loid 8:40:16 M35 USA M 0
149 Mangold Aaron 8:41:25 M23 USA M 0
150 Solt Philip 8:41:42 M23 USA M 0
151 Shelanski Howard 8:42:05 M45 USA M 0
152 Prabucki Ronald 8:43:21 M50 USA M 0
153 Brubaker Matthew 8:43:25 M35 USA M 0
154 Hanlin Jessica 8:43:33 W23 USA F 24 F 0
155 Verzilli Claudio 8:43:48 M50 USA M 0
156 Hall Bradley 8:44:50 M45 USA M 0
157 Lynch John 8:46:54 M23 USA M 0
158 Cloutier Bruno 8:48:11 M45 CAN M 0
159 Wilkins Robert 8:48:39 M23 USA M 0
160 Tichinel Mark 8:48:44 M50 USA M 0
161 Sun Lai 8:48:46 M45 USA M 0
162 Hellgren Robert 8:48:52 M23 USA M 0
163 Wong Ronnie 8:49:52 M65 USA M 0
164 Walker Chris 8:50:17 M35 USA M 0
165 Dellert Michael 8:50:20 M35 USA M 0
166 Ehrler Ana Maria 8:50:33 W23 USA F 25 F 0
167 Walters Jason 8:50:35 M35 USA M 0
168 Perez Jason 8:51:20 M35 USA M 0
169 Ballard Harry 8:51:31 M45 USA M 0
170 Addison Julian 8:52:02 M40 USA M 0
171 Sandor Edward 8:52:23 M23 USA M 0
172 Thivierge Casey 8:52:28 M35 CAN M 0
173 Mastrianni James 8:52:57 M50 USA M 0
174 Sholes Kenneth 8:53:18 M23 USA M 0
175 Uzel James 8:53:23 M50 USA M 0
176 Trimmer Christopher 8:53:30 M40 USA M 0
177 Danilkovitch Alla 8:53:52 W45 USA F 26 F 0
178 Kane Brian 8:53:57 M45 USA M 0
179 Dean Sarah 8:54:17 W23 USA F 27 F 0
180 Porterfield David 8:54:22 M40 USA M 0
181 Ball Kevin 8:54:25 M50 USA M 0
182 Donahue Kelly 8:54:27 W40 USA F 28 F 0
183 French Peter 8:54:50 M35 USA M 0
184 Compagnone Brian 8:55:34 M35 USA M 0
185 Woods Randall 8:55:34 M40 USA M 0
186 Bilbrey Clifford 8:55:47 M23 USA M 0
187 Radkar Kaustubh 8:56:02 M23 IND M 0
188 Schaller John 8:56:10 M35 USA M 0
189 Dupal Demartin Stephanie 8:56:55 W35 USA F 29 F 0
190 Muffly Scott 8:57:49 MU23 USA M 0
191 Ellick Todd William 8:58:35 M23 USA M 0
192 Beals Mark 8:58:56 M50 USA M 0
193 Pease Michael 8:59:09 M35 USA M 0
194 Whited Brad 8:59:13 M23 USA M 0
195 Aubol Jodee 8:59:49 W40 USA F 30 F 0
196 Moody Rick 9:00:43 M50 USA M 0
197 Davidson Jeremy 9:00:52 M40 USA M 0
198 Rosenberg Duane 9:01:41 M55 USA M 0
199 Slater Scott 9:01:43 M23 USA M 0
200 Falyar Christian 9:01:50 M40 USA M 0
201 Crowe Jason 9:01:51 M35 USA M 0
202 Sanders Rebecca 9:03:22 W45 CAN F 31 F 0
203 Churchill Edwin 9:04:09 M40 USA M 0
204 White Reagan 9:04:37 W23 USA F 32 F 0
205 Sydor Eric 9:05:04 M23 USA M 0
206 Ferrell Jonathan 9:07:09 M23 USA M 0
207 Meyer Amy 9:07:43 W23 USA F 33 F 0
208 Baldwin Raymond 9:07:57 M45 USA M 0
209 Belice Bryan 9:08:22 M23 USA M 0
210 Wiederhold Alan 9:08:53 M40 USA M 0
211 Zeiler Kathy 9:09:19 W40 USA F 34 F 0
212 Lee Euihwa 9:09:29 M50 USA M 0
213 Danley Jill 9:09:52 W45 USA F 35 F 0
214 Ellis Mark 9:10:09 M50 USA M 0
215 Majno Lindsay 9:10:14 W23 USA F 36 F 0
216 Rye (nee Ignatour) Sonia 9:10:26 W23 USA F 37 F 0
217 Smith Bruce 9:10:32 M45 USA M 0
218 Oseroff Vanessa 9:10:42 W23 USA F 38 F 0
219 Rubino Anthony 9:10:56 M35 USA M 0
220 Bray Scott 9:11:03 M40 USA M 0
221 Mulford Thomas 9:11:16 M50 USA M 0
222 Youngbar Henry 9:11:20 M60 USA M 0
223 Zeller Samuel 9:12:36 M50 USA M 0
224 Scott Christy 9:13:14 W35 USA F 39 F 0
225 Meyers Rick 9:13:31 M45 USA M 0
226 Shirley Stefan 9:13:34 M35 USA M 0
227 Rausa Jeremy 9:13:34 M35 USA M 0
228 Bruno Kelly 9:13:52 W23 USA F 40 F 0
229 Zimmermann John 9:14:02 M40 USA M 0
230 Johnson Donald 9:14:17 M50 USA M 0
231 Baker Adam 9:14:26 M23 USA M 0
232 Clifford Ladd 9:14:41 M40 USA M 0
233 Byers Troy 9:14:51 M35 USA M 0
234 Horning Greg 9:14:52 MU23 USA M 0
235 Wang Shunhe 9:15:05 MU23 USA M 0
236 Wang Yuqing 9:15:05 M45 USA M 0
237 Petrova Tatyana 9:15:19 W35 RUS F 41 F 0
238 Healey Frank 9:15:48 M45 USA M 0
239 Davies Paul 9:15:59 M45 USA M 0
240 Varieur Michael 9:17:43 M50 USA M 0
241 Tegroen Peter 9:18:05 M55 USA M 0
242 Smiciklas Scott 9:18:07 M40 CAN M 0
243 Thigpen Chesley 9:18:08 M40 USA M 0
244 Bradford James 9:18:13 M50 USA M 0
245 Klaff Mary 9:18:23 W45 USA F 42 F 0
246 Waldron Larry 9:19:39 M55 CAN M 0
247 Krogman Andrew 9:19:58 M35 USA M 0
248 Helberg Shannon 9:20:03 W35 USA F 43 F 0
249 Stretanski David 9:20:23 M45 USA M 0
250 Tolman Thomas 9:20:24 M35 USA M 0
251 Mikesell David 9:20:40 M50 USA M 0
252 Jones Bobby 9:20:40 M35 USA M 0
253 Sengebusch Jeffrey 9:20:46 M23 USA M 0
254 Whitford Rick 9:21:08 M35 CAN M 0
255 Goetz Joshua 9:21:20 MU23 USA M 0
256 Cwiklinski Christopher 9:21:22 M35 USA M 0
257 Cartaya Erin 9:21:38 W23 USA F 44 F 0
258 Sheehan Dennis 9:21:39 M23 USA M 0
259 Soler Darin 9:21:44 M40 USA M 0
260 OKeefe Daniel 9:21:49 M45 USA M 0
261 Ichord Heather 9:22:06 W23 USA F 45 F 0
262 Conochan Kelaine 9:22:43 W23 USA F 46 F 0
263 Eshleman Katie 9:22:43 W35 USA F 46 F 0
264 Noskin Dennis 9:22:57 M50 USA M 0
265 Schumacher Joel 9:23:29 M35 USA M 0
266 Smith Jeffrey 9:23:41 M40 USA M 0
267 Smolin Jonathan 9:24:02 M35 USA M 0
268 Haseltine Marc 9:24:57 M35 USA M 0
269 Barton Mark 9:25:01 M55 USA M 0
270 Hay Brian 9:25:09 M23 USA M 0
271 Costable Jared 9:25:09 M23 USA M 0
272 Dickson Mark 9:25:27 M45 USA M 0
273 Simon Kim 9:25:43 W55 USA F 48 F 0
274 Driscoll Kerri 9:25:47 W23 USA F 49 F 0
275 Buchanan Douglas 9:26:22 M40 USA M 0
276 Althiser Chad 9:26:40 M35 USA M 0
277 Le Jeff 9:27:10 M23 USA M 0
278 Cunningham Kevin 9:27:40 M50 CAN M 0
279 Hoffmann Amy 9:27:48 W23 USA F 50 F 0
280 Gillam Kyle 9:28:37 M23 USA M 0
281 McKinney William 9:28:57 M35 USA M 0
282 Srinivasaiah Manjunath 9:29:09 M23 IND M 0
283 Izzo Matthew 9:29:32 M23 USA M 0
284 Rice Brian 9:29:33 M23 USA M 0
285 Cameron Andrea 9:29:37 W50 CAN F 51 F 0
286 Fletcher Kelly 9:29:47 W23 USA F 52 F 0
287 Artz Terry 9:29:48 M45 USA M 0
288 Jimenez Edward 9:29:52 M45 USA M 0
289 Law Wai 9:30:05 M45 USA M 0
290 Bauer Robert 9:30:21 M40 USA M 0
291 Ruschell Un 9:30:42 W40 USA F 53 F 0
292 Barker Matt 9:30:48 M35 USA M 0
293 Kilcullen Tara 9:30:52 W23 USA F 54 F 0
294 Smith Alfred 9:31:10 M45 USA M 0
295 Seybert Adam 9:31:13 M23 USA M 0
296 Elliott Rodney 9:32:03 M35 USA M 0
297 Dietrich Ryan 9:33:54 M23 USA M 0
298 Keller Benjamin 9:34:28 M23 USA M 0
299 Grady T.J. 9:34:31 M35 USA M 0
300 Ellison Kyle 9:34:39 M40 USA M 0
301 Denny Darrin 9:34:39 M45 USA M 0
302 Hume Christopher 9:34:43 M23 USA M 0
303 Kraynak Ian 9:35:29 M23 USA M 0
304 Lazerson Eric 9:35:29 M35 USA M 0
305 Kelly Douglas 9:35:45 M45 USA M 0
306 Nicholson Jeannine 9:35:54 W23 USA F 55 F 0
307 Joswick Richard 9:36:10 M50 USA M 0
308 Campbell Michael 9:36:19 M60 USA M 0
309 Guralnick Daniel 9:36:40 M35 USA M 0
310 Beyeler Dana 9:36:59 M60 USA M 0
311 Haber Bill 9:37:30 M50 USA M 0
312 Homan Dan 9:37:31 M50 USA M 0
313 Beeny Bridgette 9:37:56 W23 USA F 56 F 0
314 Defeo Stephanie 9:37:57 W23 USA F 57 F 0
315 Yoder Michael 9:38:28 M40 USA M 0
316 Spies Katherine 9:39:02 W23 USA F 58 F 0
317 Walter Becky 9:39:14 W23 USA F 59 F 0
318 Price Erica 9:39:18 W23 USA F 60 F 0
319 Bernard David 9:39:50 M40 USA M 0
320 Nordin Anna Maria 9:39:55 W40 NOR F 61 F 0
321 Barton Crystal 9:39:58 W35 USA F 62 F 0
322 Barton Richard 9:39:59 M60 USA M 0
323 Cochran Norris 9:40:06 M40 USA M 0
324 Schaaf Andrew 9:40:06 M40 USA M 0
325 Zachar Frank 9:40:06 M45 USA M 0
326 Schneider Eric 9:40:34 M23 USA M 0
327 Hawn Kevin 9:40:35 M55 USA M 0
328 Koenigshofer Jenna 9:40:43 W23 USA F 63 F 0
329 Castilleja Michael 9:40:50 M45 USA M 0
330 Hoppe Andreas 9:40:59 M45 CAN M 0
331 Scozzaro Sarah 9:41:21 W23 USA F 64 F 0
332 Casuga Amado 9:41:30 M40 USA M 0
333 Nario Gary 9:41:30 M40 USA M 0
334 Nichols Laura 9:41:44 W23 USA F 65 F 0
335 Ferrell Erica 9:41:48 W23 USA F 66 F 0
336 Hart Bryan 9:41:49 M23 USA M 0
337 Wilson Amanda 9:41:54 W23 USA F 67 F 0
338 Burgess Bill 9:41:57 M23 USA M 0
339 Corderman Joe 9:42:03 M50 USA M 0
340 Corderman Kristen 9:42:04 W40 USA F 68 F 0
341 Whitesell Gretchen 9:42:24 WU23 USA F 69 F 0
342 Russo Anthony 9:42:24 M35 USA M 0
343 Moynihan Dennis 9:42:35 M45 USA M 0
344 Beachy Laura 9:43:40 WU23 USA F 70 F 0
345 Juckett Chestnut Stacy 9:43:53 W40 USA F 71 F 0
346 Poremba Joshua 9:44:16 M40 USA M 0
347 McCobb Douglas 9:44:45 M40 USA M 0
348 Smilek Jan 9:44:56 M45 USA M 0
349 Wren Joseph 9:45:01 M23 USA M 0
350 Price Kali 9:45:13 W23 USA F 72 F 0
351 Aiken John 9:45:17 M23 USA M 0
352 Shapiro Aaron 9:45:17 M23 USA M 0
353 Finneren Rory 9:45:35 M23 USA M 0
354 Padilla Jeffrey 9:46:12 M60 USA M 0
355 Bevard Bruce 9:46:14 M35 USA M 0
356 Chichester Leon 9:46:23 M45 USA M 0
357 Sandor James 9:46:24 M45 USA M 0
358 Zampelli Jayne 9:46:44 W35 USA F 73 F 0
359 Monahan Mark 9:47:04 M35 USA M 0
360 Livingston Bryce 9:47:06 M23 USA M 0
361 OReilly Blaine 9:47:06 M23 USA M 0
362 OReilly Egan 9:47:06 M23 USA M 0
363 Deverin Megan 9:47:08 W23 USA F 74 F 0
364 Johns David 9:47:20 M50 USA M 0
365 Adams Leigh 9:47:27 W35 USA F 75 F 0
366 Davis Daryl 9:47:53 M35 USA M 0
367 Koessler Joseph 9:48:17 M23 USA M 0
368 Jo Yoshiko 9:48:17 W45 JPN F 76 F 0
369 Osborne William 9:48:38 M35 USA M 0
370 Peters Chad 9:48:40 M35 USA M 0
371 Burch Greg 9:49:03 M40 USA M 0
372 Johnson Amy 9:49:12 W35 USA F 77 F 0
373 Hogan Heidi 9:49:12 W35 USA F 77 F 0
374 Kasper Jeremy 9:49:28 M23 USA M 0
375 Wright Robert 9:49:58 M40 USA M 0
376 Millar Scott 9:49:59 M40 USA M 0
377 Sprecher Jim 9:50:02 M35 USA M 0
378 Zeruto Jason 9:50:15 M35 USA M 0
379 Perrin Michael 9:50:18 M50 USA M 0
380 Miller Joseph 9:50:19 M23 USA M 0
381 Dillon Joel 9:50:23 M45 USA M 0
382 Walenda Gary 9:50:50 M40 USA M 0
383 Rivera Nicholas 9:50:50 M23 USA M 0
384 Lipski Brian 9:50:50 M23 USA M 0
385 Ficke Benjamin 9:50:58 MU23 USA M 0
386 Ficke James 9:50:58 M50 USA M 0
387 Thompson Joshua 9:50:59 M35 USA M 0
388 Cyr Reiko 9:51:01 W45 USA F 79 F 0
389 Smith Blayne 9:51:25 M23 USA M 0
390 Pisle Ralph 9:51:28 M35 USA M 0
391 Lacrone Seth 9:51:47 M23 USA M 0
392 Ingold Matthew 9:51:54 M23 USA M 0
393 Kline Drew 9:52:30 M40 USA M 0
394 Fisher Rick 9:52:38 M35 USA M 0
395 Wooten Andrew 9:52:45 M40 USA M 0
396 Cessna Trevor 9:52:51 M23 USA M 0
397 Ducker Claudia 9:53:04 W40 USA F 80 F 0
398 Kraje Brian 9:53:07 M40 USA M 0
399 Mulherin Dean 9:53:13 M45 USA M 0
400 Graham Joanna 9:53:34 W23 USA F 81 F 0
401 Leippert Yvonne 9:53:59 W45 USA F 82 F 0
402 McKechnie Ron 9:54:01 M40 USA M 0
403 Wang Frank 9:54:13 M50 USA M 0
404 Dehaye Michael 9:54:27 M40 USA M 0
405 Zambo David 9:55:02 M55 USA M 0
406 Ayala Stephanie 9:55:15 W35 USA F 83 F 0
407 Miller Shaun 9:55:25 M35 USA M 0
408 Covert Andrew 9:55:41 M45 USA M 0
409 Tanaka Raycrow Maria 9:56:05 W50 USA F 84 F 0
410 Erwin Michael 9:56:11 M23 USA M 0
411 Snyder Richard 9:56:11 M45 USA M 0
412 Nemec Lou 9:56:12 M23 USA M 0
413 Adams Jerrod 9:56:12 M23 USA M 0
414 Tilton Michael 9:56:12 M23 USA M 0
415 Moran Leslie 9:56:34 W40 USA F 85 F 0
416 Faber Karen 9:56:42 W45 USA F 86 F 0
417 Hart Jeffrey 9:57:10 M45 USA M 0
418 Fairbanks Eric 9:58:02 M45 USA M 0
419 Schnurbusch Joseph 9:58:37 M50 USA M 0
420 Dunbar Linda 9:58:56 W50 USA F 87 F 0
421 Criner Sherman Lee 9:59:02 M45 USA M 0
422 Nolen Patrick 9:59:58 M45 USA M 0
423 Rowe Lucien 10:02:10 M50 USA M 0
424 Hackbarth John 10:02:36 M23 USA M 0
425 Keefer Alan 10:04:18 M23 USA M 0
426 Kearns Andrew 10:05:13 M35 USA M 0
427 Schneble Patrick 10:05:44 M35 USA M 0
428 Brady Kristie 10:05:44 W35 USA F 88 F 0
429 Whitney Melinda 10:05:51 W40 USA F 89 F 0
430 Wells Benjamin 10:05:56 M23 USA M 0
431 Peters Todd 10:07:44 M50 USA M 0
432 Christian Ian 10:07:53 M23 USA M 0
433 Zakovic Iveta 10:08:43 W45 USA F 90 F 0
434 Ferner Stacy 10:08:56 W40 USA F 91 F 0
435 Brest Michael 10:09:21 M23 USA M 0
436 Edleblute Patty 10:09:28 W35 USA F 92 F 0
437 Sudduth Barbara 10:09:33 W40 USA F 93 F 0
438 Ross Zander 10:10:04 M50 USA M 0
439 Ervais Richard 10:10:04 M50 USA M 0
440 Metzger Matt 10:10:32 MU23 USA M 0
441 Chedalavada Ravi 10:10:39 M50 USA M 0
442 Kraje Amy 10:11:09 W40 USA F 94 F 0
443 Lambert Timothy 10:11:28 M50 USA M 0
444 Wagner Douglas 10:11:40 M45 USA M 0
445 DAgostino William 10:11:48 M60 USA M 0
446 Neubauer Mark 10:12:47 M35 USA M 0
447 Cillo Matthew 10:12:48 M23 USA M 0
448 Probst Frank 10:12:56 M65 USA M 0
449 Ayers Darryl 10:13:00 M35 USA M 0
450 Hickey Mike 10:13:31 M50 USA M 0
451 Garen Helen 10:13:36 W45 USA F 95 F 0
452 Wade David 10:13:49 M55 USA M 0
453 Hendy Jay 10:14:15 M45 USA M 0
454 Knoch Johanna 10:15:10 W35 USA F 96 F 0
455 Mu Bin 10:15:25 M40 USA M 0
456 Jacobson Erik 10:15:43 M35 USA M 0
457 Turrentine William 10:15:56 M60 USA M 0
458 Taylor Lisa 10:17:21 W23 USA F 97 F 0
459 Benjamin John 10:17:26 M40 USA M 0
460 Jardeleza Timothy 10:17:26 M35 USA M 0
461 Halke Donald 10:17:59 M50 USA M 0
462 Johnston Redden Amy 10:18:02 W45 USA F 98 F 0
463 Purks Susan 10:18:02 W45 USA F 98 F 0
464 Callihan James 10:18:09 M23 USA M 0
465 Herzog Jody 10:18:52 M23 USA M 0
466 Armstrong Bronson 10:19:08 M50 USA M 0
467 Tomechko Ronald 10:19:59 M50 USA M 0
468 Green Jeffrey 10:19:59 M50 USA M 0
469 Jones John G. 10:20:00 M50 USA M 0
470 Strutko Helene 10:20:00 W23 USA F 100 F 0
471 Calimano Christopher 10:20:02 M23 USA M 0
472 Moore Jason 10:20:05 M35 USA M 0
473 Keeler Shana 10:20:14 W23 USA F 101 F 0
474 Bouchard David 10:20:42 M23 USA M 0
475 Bryan Dave 10:21:00 M45 USA M 0
476 Davis Chad 10:21:11 M23 USA M 0
477 Distad William Brad 10:21:12 M35 USA M 0
478 Weaver Monique 10:21:17 W40 USA F 102 F 0
479 Mercier Joan 10:21:59 W45 USA F 103 F 0
480 Mietticki Kevin 10:22:15 M45 USA M 0
481 Gozora Thomas 10:22:40 M50 USA M 0
482 Shafer Peter 10:23:02 M55 USA M 0
483 Stafford Sarah 10:23:05 W23 USA F 104 F 0
484 Peters Tim 10:23:27 M50 USA M 0
485 Malloy Emily 10:23:33 W40 USA F 105 F 0
486 Juliam Christopher 10:23:47 M35 USA M 0
487 Jester Jonathan 10:24:00 M50 USA M 0
488 Thorne Eric 10:24:01 M40 USA M 0
489 Tabios Gerald 10:24:08 M40 USA M 0
490 Browne Forrest 10:24:46 M45 USA M 0
491 Smith Sarah 10:25:13 W40 USA F 106 F 0
492 Curtiss Brian 10:25:22 M35 USA M 0
493 Riford Mackenzie 10:25:38 WU23 USA F 107 F 0
494 Moffet Scott 10:25:38 M45 USA M 0
495 Sarantos Ellen 10:25:41 W45 USA F 108 F 0
496 Coulter Kevin 10:25:55 M50 USA M 0
497 Rodak James 10:26:29 M55 USA M 0
498 Ferris Nancy 10:26:40 W55 USA F 109 F 0
499 Eckberg Stephen 10:27:28 M50 USA M 0
500 Johnston Ronald 10:29:27 M60 USA M 0
501 Oldham Kim 10:29:43 W40 USA F 110 F 0
502 Quattrocchi Dominic 10:30:17 M45 USA M 0
503 Thompson Craig 10:30:21 M40 USA M 0
504 Weber Colleen 10:30:22 W45 USA F 111 F 0
505 Kay Michael 10:30:37 M23 USA M 0
506 Christensen Garret 10:31:04 M23 USA M 0
507 Froude Jeffrey 10:33:09 M23 USA M 0
508 Bruun Peter 10:33:34 M45 USA M 0
509 McCullar Krispian 10:33:56 M35 USA M 0
510 Wood Jason 10:34:11 M35 USA M 0
511 Henson Andrea 10:34:20 W23 USA F 112 F 0
512 Brown Roger 10:34:57 M45 USA M 0
513 Doll Mark 10:34:58 M45 USA M 0
514 Huck Tammy 10:35:28 W45 USA F 113 F 0
515 Capella Craig 10:35:37 M45 USA M 0
516 Robinson Arash 10:35:37 M35 USA M 0
517 Coxen Julia 10:35:44 W35 USA F 114 F 0
518 Paul David 10:35:44 M40 USA M 0
519 Jenkins Jerry 10:35:45 M35 USA M 0
520 Carrier Christopher 10:35:45 M23 USA M 0
521 Barnes Morgan 10:36:40 W23 USA F 115 F 0
522 Rasch Tara 10:36:53 W23 USA F 116 F 0
523 Strassburg David 10:36:53 M40 USA M 0
524 Izzo Stephen 10:38:08 M23 USA M 0
525 Creighton Kevin 10:38:43 M23 USA M 0
526 Lerette Morgan 10:38:43 M23 USA M 0
527 Mullaney Brennan 10:38:43 M23 USA M 0
528 Speights Catharine 10:39:19 W45 USA F 117 F 0
529 Deak Andy 10:39:41 M23 USA M 0
530 Wireman Elliott 10:40:11 M23 USA M 0
531 Kairys Joseph 10:40:15 M50 USA M 0
532 Kubicz Tom 10:40:30 M23 USA M 0
533 Christy Katie 10:41:01 W23 USA F 118 F 0
534 Christy Josh 10:41:01 M23 USA M 0
535 Seymour Margaret 10:41:08 W23 USA F 119 F 0
536 Karek Benjamin 10:41:42 M23 USA M 0
537 Rutherford Mark 10:41:49 M50 USA M 0
538 Juenger Michael 10:42:09 M40 USA M 0
539 Smith Stephen 10:42:17 M40 USA M 0
540 Caswell Julie 10:42:48 W45 USA F 120 F 0
541 Douglas Alex 10:42:58 M23 USA M 0
542 Pieper Kirsten 10:42:58 W40 USA F 121 F 0
543 Kubelus Thomas 10:42:58 M50 USA M 0
544 Lee Jonathan 10:43:09 M23 USA M 0
545 Taylor Daniel 10:43:58 M35 USA M 0
546 Sowers Tommy 10:44:00 M35 USA M 0
547 Shankle Brett 10:44:06 M35 USA M 0
548 Whited Keith 10:44:58 M60 USA M 0
549 Stocker Emmy 10:45:03 W55 USA F 122 F 0
550 Rodis Sarah 10:45:07 W23 USA F 123 F 0
551 Lorenz Hilary 10:45:44 W45 USA F 124 F 0
552 Billings Neil 10:45:47 M45 USA M 0
553 Wells Matthew 10:45:48 M23 USA M 0
554 Amos Tanya 10:45:59 W40 USA F 125 F 0
555 Valleri Vamsi 10:46:03 M40 USA M 0
556 McPhatter Lesley 10:46:11 W45 USA F 126 F 0
557 Park Chanwol 10:46:23 W40 USA F 127 F 0
558 Encarnacion Paul 10:46:51 M50 USA M 0
559 Marker Sandra 10:47:03 W45 USA F 128 F 0
560 Clarke Kevin 10:47:38 M23 USA M 0
561 Worthan Shannon 10:47:38 M23 USA M 0
562 Costa Hamilton 10:47:42 M40 USA M 0
563 Altomare Michael 10:47:54 M40 USA M 0
564 Singer Andrew 10:48:08 M45 USA M 0
565 Morris Joel 10:48:19 M40 USA M 0
566 Otero Ulysses 10:48:45 M45 USA M 0
567 Yesnick Bill 10:48:57 M45 USA M 0
568 Carreon Johnson Veronica 10:49:38 W40 USA F 129 F 0
569 Barrus Lindsey 10:49:40 M23 USA M 0
570 Kerr Jeffrey 10:49:47 M40 USA M 0
571 Coleman Patrick 10:49:53 M23 USA M 0
572 Wait Todd 10:49:55 M45 USA M 0
573 Carter Keith 10:50:43 M35 USA M 0
574 Haber Shelly 10:50:46 W45 USA F 130 F 0
575 Williams Monica 10:50:52 W23 USA F 131 F 0
576 Pipal Steven 10:51:08 M23 USA M 0
577 Willner Albert 10:51:11 M50 USA M 0
578 Poirier David 10:51:13 M45 USA M 0
579 Bragg Andrew 10:51:21 M40 USA M 0
580 Timmins Pete 10:51:21 M50 USA M 0
581 Applebaum Jordan 10:51:26 M35 USA M 0
582 Stacy Adam 10:51:36 M23 USA M 0
583 Holscher Zane 10:51:39 M23 USA M 0
584 Hemler Joslyn 10:51:49 W23 USA F 132 F 0
585 Kriegbaum David 10:51:50 M23 USA M 0
586 Hovey Eric 10:52:11 M23 USA M 0
587 Bertagnoli Andy 10:52:24 M35 USA M 0
588 Hospelhorn Neal 10:52:45 M60 USA M 0
589 Zeger Chadwick 10:52:53 M35 USA M 0
590 Sheridan Kim 10:52:56 W45 USA F 133 F 0
591 Mentzer Eddy 10:53:24 M40 USA M 0
592 Maldonado Adam 10:53:40 M35 USA M 0
593 Cheng Stephen 10:53:41 M40 USA M 0
594 Greer Michael 10:53:43 M50 USA M 0
595 Quinn Karen 10:53:44 W40 USA F 134 F 0
596 Zubieta Laura 10:54:04 W40 MEX F 135 F 0
597 Shepherd Christopher 10:54:06 M35 USA M 0
598 Rodriguez Michael 10:54:06 M50 USA M 0
599 Wirick Stephen 10:54:12 M60 USA M 0
600 Keeney Gregory 10:55:08 M40 USA M 0
601 Ebert Jackie 10:55:16 W45 USA F 136 F 0
602 OGrady Michael 10:55:25 M55 USA M 0
603 Skeans Floyd 10:55:46 M40 USA M 0
604 Davis Bryan 10:56:07 M40 USA M 0
605 Marker William 10:56:08 M50 USA M 0
606 Mackert Michael 10:56:08 M55 USA M 0
607 Kilner Aaron 10:56:27 MU23 USA M 0
608 Meyers Harry 10:56:34 M50 USA M 0
609 McKay Kelly 10:57:12 M45 USA M 0
610 Snigg Shannon 10:57:12 W23 USA F 137 F 0
611 Eversfield Shane 10:57:21 M55 USA M 0
612 Stypula Elaine 10:57:28 W45 USA F 138 F 0
613 Fillmore Paul 10:57:44 M40 USA M 0
614 Ellis W. Brendan 10:58:14 M35 USA M 0
615 Huck David 10:58:22 M60 USA M 0
616 Whitesell Christopher 10:58:23 M50 USA M 0
617 Nemec James 10:58:24 M23 USA M 0
618 Lytle Darrell 10:58:45 M23 USA M 0
619 Walters Rheeanna 10:59:21 W35 USA F 139 F 0
620 Williams David 10:59:45 M35 USA M 0
621 Pawling Jason 11:00:14 M45 USA M 0
622 Sundberg Daniel 11:00:38 M23 USA M 0
623 Leach David 11:01:21 M40 USA M 0
624 Hantke Valeria 11:01:55 W23 USA F 140 F 0
625 Clarke Mark 11:02:28 M65 USA M 0
626 Klein Kenneth 11:02:32 M40 USA M 0
627 Hodgkinson Seamus 11:02:42 M60 USA M 0
628 Louderback Benjamin 11:03:14 MU23 USA M 0
629 Louderback Thomas 11:03:14 M23 USA M 0
630 Southard John 11:03:24 M60 USA M 0
631 Lamb Brent 11:03:26 M35 USA M 0
632 Hotson Suzanne 11:03:51 W50 CAN F 141 F 0
633 Crandall Bethany 11:04:01 W23 USA F 142 F 0
634 Contardo Pete 11:04:09 M23 USA M 0
635 Fooshee Bryan 11:04:09 M35 USA M 0
636 Plummer Richard 11:04:29 M35 USA M 0
637 Speck William 11:04:57 M35 USA M 0
638 Coniglio Ross 11:04:58 M23 USA M 0
639 Gaasch Wade 11:05:19 M55 USA M 0
640 McCormick Howell Annamarie 11:05:54 W23 USA F 143 F 0
641 Mangold Richard 11:06:23 M55 USA M 0
642 Pabotoy Kristopher 11:06:36 M35 USA M 0
643 Adams Kimmie 11:06:47 WU23 USA F 144 F 0
644 Panebianco Nicholas 11:06:57 M45 USA M 0
645 Sullivan Michael K. 11:07:31 M55 USA M 0
646 Burrows Stephen 11:07:40 M60 CAN M 0
647 Gray Gilbert 11:08:29 M50 USA M 0
648 Redding Vernon 11:08:33 M50 USA M 0
649 Dickerson Kirsten 11:08:42 W23 USA F 145 F 0
650 Moore Adam 11:10:24 M23 USA M 0
651 Erickson Suzanne 11:13:23 W45 USA F 146 F 0
652 Hawkins Jay 11:13:24 M45 USA M 0
653 Wilson Carrie 11:13:24 W23 USA F 147 F 0
654 Pour Jeffrey 11:13:24 M50 USA M 0
655 Powers John 11:14:06 MU23 USA M 0
656 Lohr David 11:14:17 M23 USA M 0
657 Whited Rodney 11:15:05 M50 USA M 0
658 King Steve 11:15:11 M50 USA M 0
659 Downie Jeremiah 11:15:47 M40 USA M 0
660 Tillman Kathryn 11:15:56 W40 USA F 148 F 0
661 Swain Melanie 11:16:18 W40 USA F 149 F 0
662 Mims Bill 11:16:19 M55 USA M 0
663 Riley Beau 11:16:22 M23 USA M 0
664 Heiland Richard 11:17:30 M50 USA M 0
665 Gavin Edward 11:17:36 M50 USA M 0
666 Cerminaro Anthony 11:17:36 M75 USA M 0
667 Scalese Christopher 11:17:37 M45 USA M 0
668 Balsone Vincent 11:17:41 M45 USA M 0
669 Powell David 11:18:15 M23 USA M 0
670 Gysbers Sara 11:18:15 W23 USA F 150 F 0
671 Pinkelman Jody 11:19:27 M23 USA M 0
672 Brenker Charles 11:19:32 M60 USA M 0
673 Cockman Dave 11:20:19 M55 USA M 0
674 Harris Justin 11:20:26 M35 USA M 0
675 Rivera Melinda 11:20:30 W35 USA F 151 F 0
676 Janosko David 11:21:00 M50 USA M 0
677 Scott William 11:21:25 M23 USA M 0
678 Bowling Joe 11:21:29 M23 USA M 0
679 Tracy Matt 11:21:43 M35 USA M 0
680 Johnson Jacob 11:21:49 M23 USA M 0
681 Whitten Sarah 11:22:05 W23 USA F 152 F 0
682 Smith Stevie 11:22:57 W23 USA F 153 F 0
683 Murrer Christopher 11:22:57 M23 USA M 0
684 Leblanc Marie Andree 11:23:20 W23 CAN F 154 F 0
685 Casale Eva 11:23:44 W45 USA F 155 F 0
686 Lewis Larry 11:24:11 M55 USA M 0
687 DAlonzo Joan 11:24:48 W50 USA F 156 F 0
688 Adkins Vivian 11:25:00 W40 USA F 157 F 0
689 Stanley Aaron 11:25:07 M23 USA M 0
690 Whitesell Thomas 11:25:19 M55 USA M 0
691 Crain Cheryl 11:27:10 W45 USA F 158 F 0
692 Orndorff Phillip 11:27:19 M35 USA M 0
693 Clemmer Pamela 11:27:32 W40 USA F 159 F 0
694 Griffith Terry 11:30:07 M55 USA M 0
695 Seidl Gregory 11:33:11 M50 USA M 0
696 Showalter Lowell 11:33:23 M55 USA M 0
697 Fortin Ilene 11:33:35 W40 USA F 160 F 0
698 Bowman Todd 11:33:38 M50 USA M 0
699 Hoar Emily 11:33:58 W23 USA F 161 F 0
700 Padilla Susana 11:34:11 W35 USA F 162 F 0
701 Page Charles 11:34:43 M35 USA M 0
702 Coakley Nancy 11:34:45 W55 CAN F 163 F 0
703 Musson Sandy 11:34:49 W45 CAN F 164 F 0
704 Kimber Jill 11:35:03 W23 CAN F 165 F 0
705 Daffara Hernan 11:35:30 M35 USA M 0
706 Edleman John 11:35:37 M60 USA M 0
707 Duke Kris 11:35:47 M35 USA M 0
708 Delaney Patrick 11:35:53 M45 USA M 0
709 Short Andrew 11:36:19 M45 USA M 0
710 Rice Rita 11:36:26 W45 USA F 166 F 0
711 McWhorter Paula 11:37:04 W55 USA F 167 F 0
712 Jacobson Michael 11:37:47 M40 USA M 0
713 Podlasek Josephine 11:37:53 W23 USA F 168 F 0
714 House Ed 11:38:39 M60 USA M 0
715 House Michael 11:38:39 M50 USA M 0
716 Churchey Brittany 11:39:09 W23 USA F 169 F 0
717 George Von 11:39:44 M50 USA M 0
718 Orrvick Daniel 11:40:08 M23 USA M 0
719 Boone Chad 11:40:32 M23 USA M 0
720 Kinney Anne Marie 11:40:55 W23 USA F 170 F 0
721 Parkhurst Mark 11:42:13 M55 USA M 0
722 Fuss Angela 11:42:50 W35 USA F 171 F 0
723 Maxwell Jami 11:43:23 W35 USA F 172 F 0
724 Andrews Maria 11:43:23 W55 USA F 172 F 0
725 VanMeter Michael 11:43:30 M45 USA M 0
726 Reynolds Luther 11:43:45 M45 USA M 0
727 Lanham Laura 11:43:45 W40 USA F 174 F 0
728 Plazinski Mark 11:43:46 M40 USA M 0
729 Gormley Eugene 11:44:23 M45 USA M 0
730 Brandt Curt 11:44:29 M50 USA M 0
731 Gellene Chris 11:45:04 M50 USA M 0
732 Moses Kyle 11:45:08 M40 USA M 0
733 Powers Frank 11:45:10 M50 USA M 0
734 Hosner Tom 11:45:27 M60 USA M 0
735 Vazquez Sandy 11:45:35 W23 USA F 175 F 0
736 Monkelban Patrick 11:45:43 M35 USA M 0
737 Cowley Tom 11:46:04 M75 USA M 0
738 Meyers Patrick 11:47:12 M23 USA M 0
739 Frehner Adriane 11:47:41 W35 USA F 176 F 0
740 Frehner Jeremy 11:47:41 M40 USA M 0
741 Matyas Ethan 11:48:30 M35 USA M 0
742 Riford James 11:49:09 MU23 USA M 0
743 Smith Charlie 11:49:12 M45 USA M 0
744 Oveiss David 11:49:34 M55 USA M 0
745 Winter Jaeson 11:49:37 M23 USA M 0
746 Bingham Sonya 11:50:19 W23 USA F 177 F 0
747 Johnshoy Mike 11:50:29 M55 USA M 0
748 Jussila Rebecca 11:50:37 W40 USA F 178 F 0
749 Haigh Christopher 11:50:51 M45 USA M 0
750 Chan Anthony 11:51:14 M35 USA M 0
751 Kerns Jonathan 11:51:30 M23 USA M 0
752 MacNamara William 11:53:16 M45 USA M 0
753 Osborne Nathaniel 11:55:08 M23 USA M 0
754 Zeger Sabrina 11:55:27 WU23 USA F 179 F 0
755 Davis Shalisa 11:55:46 W40 USA F 180 F 0
756 Cassidy Anne Maria 11:57:11 W45 USA F 181 F 0
757 Tomas Gregory 11:57:37 M40 USA M 0
758 Ward Randy 11:57:42 M55 USA M 0
759 Poling Edward 11:58:23 M65 USA M 0
760 Louderback Sarah 12:00:01 WU23 USA F 182 F 0
761 Louderback John 12:00:01 M55 USA M 0
762 Yoder Michael 12:05:30 M45 USA M 0
763 Homan Jeanne 12:06:03 W45 USA F 183 F 0
764 Barton Kathy 12:06:04 W55 USA F 184 F 0
765 Johnson Shawn 12:09:58 M35 USA M 0
766 Bane Dennis 12:12:07 M60 USA M 0
767 Huffman Daniel 12:12:14 M50 USA M 0
768 Culp Victor 12:12:20 M55 USA M 0
769 Piggott Nicola 12:12:23 W23 USA F 185 F 0
770 Andrews Sharon 12:12:37 W55 USA F 186 F 0
771 Trombley Gary 12:13:00 M50 USA M 0
772 Kolb Robert 12:13:32 M50 USA M 0
773 Garfield Susan 12:13:48 W60 USA F 187 F 0
774 Schroyer Michael 12:15:11 M50 USA M 0
775 Kornides Beverly 12:17:24 W55 USA F 188 F 0
776 Cohen Paul 12:18:00 M55 USA M 0
777 Bittinger Douglas 12:19:40 M40 USA M 0
778 Rhoderick Dale 12:23:26 M50 USA M 0
779 Deutsch Jason 12:26:32 M40 USA M 0
780 Wirtanen Erin Bree 12:27:03 W35 USA F 189 F 0
781 Whitesell Ryan 12:29:17 MU23 USA M 0
782 Becker Jim 12:29:25 M70 USA M 0
783 Suomela Peter 12:32:27 M60 CAN M 0
784 Watern Kathy 12:32:58 W50 USA F 190 F 0
785 Bradford Anna 12:33:13 W45 USA F 191 F 0
786 Mingo Paul 12:34:14 M60 USA M 0
787 Lynch Susan 12:34:35 W45 USA F 192 F 0
788 Smith Cheryl 12:37:16 W45 USA F 193 F 0
789 Shamma Othman Zainab 12:37:52 W55 USA F 194 F 0
790 Horning Scott 12:38:58 M40 USA M 0
791 Brewster David 12:38:58 M45 USA M 0
792 Kurti Jessica 12:39:16 W40 USA F 195 F 0
793 Angry Rosaria 12:39:44 W35 USA F 196 F 0
794 Gowen Alan 12:46:00 M60 USA M 0
795 Baden Melanie 12:46:34 W40 USA F 197 F 0
796 Abernathy Justin 12:46:34 M35 USA M 0
797 Abernathy Jason 12:46:35 M35 USA M 0
798 Ward Ronnie 12:48:08 M65 USA M 0
799 Betker Paul 12:49:21 M65 USA M 0
800 Wood Elizabeth 12:50:51 W23 USA F 198 F 0
801 Madaras Laszlo 12:53:10 M50 USA M 0
802 Derr Theresa 12:53:48 W45 USA F 199 F 0
803 Banks Charles 12:54:00 M50 USA M 0
804 Pinkelman Jeremy 12:54:42 M35 USA M 0
805 Oelkuct Mark 12:57:24 M50 USA M 0
806 Kitchen Ray 12:57:37 M65 USA M 0
807 Derr Barney 12:58:40 M50 USA M 0
808 Delatorre Susan 13:05:06 W45 USA F 200 F 0
809 Matters Teri 13:05:41 W50 USA F 201 F 0
810 Byron Barton Kimball 13:05:42 M55 USA M 0
811 Meyer Don 13:05:42 M65 USA M 0
812 Ludwick Marilyn 13:06:03 W60 USA F 202 F 0
813 Pierce Ingrid 13:08:04 W23 USA F 203 F 0
814 Reynolds Elia 13:08:05 W23 USA F 204 F 0
815 OConnell Reece 13:11:03 MU23 USA M 0
816 Dubois Luke 13:11:03 M23 USA M 0
817 Hawn Faye 13:14:10 W55 USA F 205 F 0
818 Ellis Vicki 13:15:12 W40 USA F 206 F 0
819 Knickerbocker Jen 13:18:14 W40 USA F 207 F 0
820 Jordan Robbin 13:18:34 W40 USA F 208 F 0
821 Koops Maureen 13:18:34 W45 USA F 208 F 0
822 Ficke Roberta 13:18:48 W50 USA F 210 F 0
823 Oszustowicz John 13:18:59 M60 USA M 0
824 Gerhardt Tom 13:19:40 M60 USA M 0
825 Meyers Marlin 13:19:40 M23 USA M 0
826 Grosh Christian 13:19:58 MU23 USA M 0
827 Katkow Eric 13:20:43 M65 USA M 0
828 Wheatland John 13:20:44 M60 USA M 0
829 Grassie Paul 13:20:58 M50 USA M 0
830 Draper Bill 13:22:50 M60 USA M 0
831 Webster Rebecca 13:23:21 W40 USA F 211 F 0
832 Burke John 13:23:41 M45 USA M 0
833 Campbell Cameron 13:23:47 M50 USA M 0
834 Hatcher Jennifer 13:26:02 W40 USA F 212 F 0
835 Quecan Melquisedec 13:26:35 M70 USA M 0
836 Cleary Joe 13:27:30 M70 CAN M 0
837 Zwart Alan 13:28:42 M40 USA M 0
838 Longley George 13:29:14 M65 USA M 0
839 Gerdy Gregory 13:30:03 M60 USA M 0
840 Abrams Thomas 13:30:20 M55 USA M 0
841 Klinger Robert 13:31:04 M70 USA M 0
842 Schmidt Philip 13:31:25 M45 USA M 0
843 Davis Tom 13:31:25 M55 USA M 0
844 Espinosa Esperanza 13:32:17 W23 USA F 213 F 0
845 Jordan King 13:33:35 M65 USA M 0
846 Banker George 13:35:40 M60 USA M 0
847 Jones Ford 13:38:23 M50 USA M 0
848 McClellan Peter 13:38:23 M60 USA M 0
849 Fitzgerald Amy 13:39:06 W40 USA F 214 F 0
850 Davidson Lucia 13:40:44 W65 USA F 215 F 0
851 Hershey Katie 13:41:11 W50 USA F 216 F 0
852 Grosh Robbie 13:42:55 M50 USA M 0
853 Lefferts Peter 13:43:18 M55 USA M 0
854 Hargis Philip 13:46:00 M40 USA M 0
855 Curley John 13:46:19 M60 USA M 0
856 Fox David 13:52:35 M40 USA M 0
857 Riebling Peter 13:54:53 M45 USA M 0
858 Ehrlich Natalie 13:55:20 W55 USA F 217 F 0


ReferencementCe site est listé dans la catégorie Sport : Sports extrêmes Dictionnaire
| Accueil | La Réunion  Vue du ciel | Météo | Cyclones | Volcan | Cirques de Mafate , Cilaos , Salazie | Photos Randonnées | Randonnées Réunion: Randos Espiègle , Courses montagne | Diagonale des Fous |  Marathon des Sables | Voyages Les stats du site | Fonds écran | Plan du site | Blog de runraid | Galerie photos Sport Réunion |